カタログに戻る

SL-8 DEB

運用中VLEO
NORAD 14346·DEBRIS·🇷🇺 Russia

打ち上げ May 7, 1981 から Plesetsk Cosmodrome

Loading…

次のパス (今後24時間)

TLE

最新Source: Space-Track

元期: Sep 14, 2026, 09:27 UTC

1 14346U 81041D   26257.39400558  .00006605  00000-0  45024-3 0  9993
2 14346  74.0307 349.6806 0006234  69.4939  49.7786 15.06422376308145

AllMySatでSL-8 DEBをリアルタイム追跡

Download on the App Store